P76-5

operational
NORAD ID: 8860 Int'l Des: 1976-047 Owner: STP/APL Country: US
LEOCIRCULARRETROGRADESSO

P76-5について

説明を読み込み中...

リアルタイム位置

3D地球を読み込み中...

次回通過

高度履歴

Altitude vs Time

uPlot chart will show altitude changes over time

軌道要素

1 8860U 76047A 26061.15747943 .00000088 00000-0 15790-3 0 9992
2 8860 99.9174 271.6642 0041095 270.2764 201.0057 13.68274573481754
Epoch: Mar 2, 2026 • Age: 38 hours

現在のステータス

高度 1003.6 km
速度 7.36 km/s
衛星直下点 -74.44°S, 58.92°W
タイプ other

大規模コンステレーション

Loading constellations...